102P/Shoemaker 1 (2021)

Japanese version
Home page
Updated on February 9, 2021

---------------------------------------------------------------------

* Profile

* Pictures

* Orbital Elements

Epoch 2021 Jan. 26.0 TT = JDT 2459240.5
T 2021 Jan. 22.38902 TT                                 MPC
q   2.0699179            (2000.0)            P               Q
n   0.13235964     Peri.   20.53836     +0.98759493     -0.03143393
a   3.8132827      Node   339.36575     -0.09268085     +0.67419815
e   0.4571822      Incl.   25.88467     +0.12675378     +0.73788126
P   7.45
From 353 observations 2000 Jan. 1-2013 Dec. 4, mean residual 0".8.
     Nongravitational parameters A1 = -0.34, A2 = -0.2193.

* Magnitudes Graph

        m1 = 14.5 + 5 log d + 10.0 log r

---------------------------------------------------------------------

The orbital elements are published on M.P.E.C. 2013-X73.
The magnitudes graphs are made with Comet for Windows.

---------------------------------------------------------------------

Copyright(C) Seiichi Yoshida (comet@aerith.net). All rights reserved.